When you browse on this site, cookies collect data to enhance your experience and personalize the content and advertising you see.
Visit our Privacy Policy to learn more. By continuing to use the site, you agree to this use of cookies and data.
  • In Hungary
  • List of Countries
  • For 7 days
  • Water Temperature
  • Satellite Maps
  • Weather Map
  • News
  • Weather Widgets
  • user-avatar
    Login

    Hourly Weather Hemel Hempstead

    Today, 13 December, Thursday

    Time Temperature Precipitation Wind Pressure Humidity
    00:00 0°C° 0 mm 5 mps 751 mmHg 79%
    01:00 0°C° 0 mm 5 mps 750 mmHg 79%
    02:00 0°C° 0 mm 5 mps 750 mmHg 79%
    03:00 -1°C° 0 mm 6 mps 749 mmHg 79%
    04:00 -1°C° 0 mm 6 mps 749 mmHg 79%
    05:00 -1°C° 0 mm 6 mps 749 mmHg 78%
    06:00 -1°C° 0 mm 6 mps 749 mmHg 77%
    07:00 -1°C° 0 mm 6 mps 749 mmHg 77%
    08:00 -1°C° 0 mm 6 mps 749 mmHg 76%
    09:00 -1°C° 0 mm 6 mps 749 mmHg 76%
    10:00 +1°C° 0 mm 6 mps 749 mmHg 72%
    11:00 +2°C° 0 mm 6 mps 749 mmHg 68%
    12:00 +2°C° 0 mm 5 mps 750 mmHg 65%
    13:00 +2°C° 0 mm 5 mps 750 mmHg 66%
    14:00 +2°C° 0 mm 5 mps 750 mmHg 67%
    15:00 +3°C° 0 mm 4 mps 750 mmHg 68%
    16:00 +1°C° 0 mm 4 mps 750 mmHg 71%
    17:00 0°C° 0 mm 4 mps 751 mmHg 73%
    18:00 0°C° 0 mm 4 mps 751 mmHg 75%
    19:00 -1°C° 0 mm 4 mps 751 mmHg 76%
    20:00 -1°C° 0 mm 4 mps 751 mmHg 78%
    21:00 0°C° 0 mm 3 mps 752 mmHg 79%
    22:00 0°C° 0 mm 3 mps 752 mmHg 79%
    23:00 -1°C° 0 mm 3 mps 753 mmHg 80%

    Tomorrow, 14 December, Friday

    Time Temperature Precipitation Wind Pressure Humidity
    00:00 -1°C° 0 mm 2 mps 753 mmHg 80%
    01:00 -1°C° 0 mm 2 mps 753 mmHg 79%
    02:00 -1°C° 0 mm 2 mps 753 mmHg 79%
    03:00 -1°C° 0 mm 2 mps 753 mmHg 78%
    04:00 -1°C° 0 mm 2 mps 753 mmHg 79%
    05:00 -1°C° 0 mm 2 mps 754 mmHg 79%
    06:00 -1°C° 0 mm 2 mps 754 mmHg 79%
    07:00 +1°C° 0 mm 2 mps 754 mmHg 79%
    08:00 +1°C° 0 mm 2 mps 754 mmHg 80%
    09:00 +1°C° 0 mm 2 mps 754 mmHg 80%
    10:00 +2°C° 0 mm 2 mps 754 mmHg 76%
    11:00 +3°C° 0 mm 2 mps 755 mmHg 72%
    12:00 +2°C° 0 mm 3 mps 755 mmHg 68%
    13:00 +3°C° 0 mm 2 mps 755 mmHg 69%
    14:00 +3°C° 0 mm 2 mps 755 mmHg 70%
    15:00 +3°C° 0 mm 2 mps 755 mmHg 72%
    16:00 +2°C° 0 mm 2 mps 755 mmHg 74%
    17:00 +1°C° 0 mm 2 mps 755 mmHg 76%
    18:00 +1°C° 0 mm 2 mps 755 mmHg 79%
    19:00 +1°C° 0 mm 2 mps 755 mmHg 79%
    20:00 -1°C° 0 mm 2 mps 754 mmHg 79%
    21:00 -1°C° 0 mm 3 mps 754 mmHg 79%
    22:00 -1°C° 0 mm 3 mps 754 mmHg 79%
    23:00 -1°C° 0 mm 3 mps 754 mmHg 79%

    Day after tomorrow, 15 December, Saturday

    Time Temperature Precipitation Wind Pressure Humidity
    00:00 -1°C° 0 mm 3 mps 754 mmHg 78%
    01:00 -2°C° 0 mm 4 mps 754 mmHg 79%
    02:00 -2°C° 0 mm 4 mps 753 mmHg 79%
    03:00 -1°C° 0 mm 4 mps 753 mmHg 79%
    04:00 -1°C° 0 mm 5 mps 752 mmHg 78%
    05:00 -1°C° 0 mm 5 mps 752 mmHg 77%
    06:00 -1°C° 0 mm 5 mps 751 mmHg 76%
    07:00 -1°C° 0 mm 6 mps 751 mmHg 74%
    08:00 -1°C° 0 mm 7 mps 750 mmHg 71%
    09:00 -1°C° 0 mm 7 mps 750 mmHg 69%
    10:00 0°C° 0.1 mm 8 mps 749 mmHg 68%
    11:00 0°C° 0.1 mm 8 mps 748 mmHg 67%
    12:00 0°C° 0.1 mm 9 mps 747 mmHg 66%
    13:00 0°C° 0.9 mm 9 mps 746 mmHg 72%
    14:00 0°C° 0.9 mm 9 mps 744 mmHg 78%
    15:00 0°C° 0.9 mm 9 mps 743 mmHg 84%
    16:00 +1°C° 0.8 mm 10 mps 742 mmHg 86%
    17:00 +1°C° 0.8 mm 10 mps 741 mmHg 88%
    18:00 +2°C° 0.8 mm 10 mps 740 mmHg 90%
    19:00 +2°C° 1.1 mm 9 mps 740 mmHg 89%
    20:00 +4°C° 1.1 mm 7 mps 740 mmHg 89%
    21:00 +4°C° 1.1 mm 6 mps 740 mmHg 88%
    22:00 +4°C° 0 mm 6 mps 740 mmHg 87%
    23:00 +5°C° 0 mm 5 mps 740 mmHg 85%

    16 December, Sunday

    Time Temperature Precipitation Wind Pressure Humidity
    00:00 +3°C° 0 mm 5 mps 741 mmHg 84%
    01:00 +3°C° 0 mm 5 mps 741 mmHg 84%
    02:00 +4°C° 0 mm 4 mps 741 mmHg 84%
    03:00 +3°C° 0 mm 4 mps 742 mmHg 84%
    04:00 +3°C° 0 mm 4 mps 742 mmHg 85%
    05:00 +2°C° 0 mm 3 mps 742 mmHg 86%
    06:00 +2°C° 0 mm 3 mps 743 mmHg 87%
    07:00 +2°C° 0 mm 3 mps 743 mmHg 87%
    08:00 +2°C° 0 mm 3 mps 743 mmHg 88%
    09:00 +2°C° 0 mm 3 mps 743 mmHg 88%
    10:00 +3°C° 0 mm 3 mps 743 mmHg 85%
    11:00 +5°C° 0 mm 3 mps 743 mmHg 82%
    12:00 +7°C° 0 mm 3 mps 743 mmHg 79%
    13:00 +7°C° 0.2 mm 3 mps 743 mmHg 82%
    14:00 +7°C° 0.2 mm 3 mps 743 mmHg 84%
    15:00 +5°C° 0.2 mm 3 mps 743 mmHg 86%
    16:00 +5°C° 0.4 mm 3 mps 743 mmHg 88%
    17:00 +5°C° 0.4 mm 3 mps 744 mmHg 90%
    18:00 +4°C° 0.4 mm 3 mps 744 mmHg 92%
    19:00 +4°C° 0.3 mm 3 mps 744 mmHg 92%
    20:00 +4°C° 0.3 mm 3 mps 745 mmHg 93%
    21:00 +4°C° 0.3 mm 3 mps 745 mmHg 93%
    22:00 +3°C° 0 mm 3 mps 745 mmHg 93%
    23:00 +3°C° 0 mm 3 mps 746 mmHg 92%

    17 December, Monday

    Time Temperature Precipitation Wind Pressure Humidity
    00:00 +3°C° 0 mm 3 mps 746 mmHg 92%
    01:00 +2°C° 0 mm 3 mps 746 mmHg 91%
    02:00 +2°C° 0 mm 3 mps 746 mmHg 91%
    03:00 +2°C° 0 mm 3 mps 747 mmHg 90%
    04:00 +2°C° 0 mm 3 mps 747 mmHg 90%
    05:00 +2°C° 0 mm 3 mps 747 mmHg 90%
    06:00 +3°C° 0 mm 2 mps 748 mmHg 90%
    07:00 +2°C° 0 mm 3 mps 748 mmHg 90%
    08:00 +2°C° 0 mm 3 mps 749 mmHg 90%
    09:00 +2°C° 0 mm 3 mps 749 mmHg 90%
    10:00 +4°C° 0 mm 3 mps 749 mmHg 87%
    11:00 +5°C° 0 mm 3 mps 749 mmHg 84%
    12:00 +6°C° 0 mm 4 mps 749 mmHg 81%
    13:00 +6°C° 0 mm 4 mps 749 mmHg 83%
    14:00 +6°C° 0 mm 4 mps 749 mmHg 84%
    15:00 +6°C° 0 mm 5 mps 748 mmHg 86%
    16:00 +6°C° 0 mm 5 mps 748 mmHg 86%
    17:00 +7°C° 0 mm 6 mps 748 mmHg 87%
    18:00 +7°C° 0 mm 6 mps 748 mmHg 87%
    19:00 +6°C° 0.1 mm 7 mps 747 mmHg 87%
    20:00 +8°C° 0.1 mm 7 mps 747 mmHg 87%
    21:00 +7°C° 0.1 mm 8 mps 747 mmHg 86%
    22:00 +9°C° 0.1 mm 8 mps 747 mmHg 85%
    23:00 +8°C° 0.1 mm 9 mps 746 mmHg 85%

    18 December, Tuesday

    Time Temperature Precipitation Wind Pressure Humidity
    00:00 +8°C° 0.1 mm 9 mps 746 mmHg 84%
    01:00 +8°C° 0.1 mm 9 mps 745 mmHg 83%
    02:00 +8°C° 0.1 mm 9 mps 745 mmHg 82%
    03:00 +8°C° 0.1 mm 9 mps 745 mmHg 81%
    04:00 +8°C° 0 mm 9 mps 744 mmHg 80%
    05:00 +8°C° 0 mm 9 mps 744 mmHg 78%
    06:00 +8°C° 0 mm 9 mps 743 mmHg 77%
    07:00 +7°C° 0 mm 10 mps 742 mmHg 75%
    08:00 +7°C° 0 mm 10 mps 742 mmHg 73%
    09:00 +7°C° 0 mm 11 mps 741 mmHg 72%
    10:00 +7°C° 0.3 mm 11 mps 740 mmHg 72%
    11:00 +7°C° 0.3 mm 12 mps 739 mmHg 72%
    12:00 +5°C° 0.3 mm 12 mps 738 mmHg 73%
    13:00 +6°C° 1.4 mm 11 mps 737 mmHg 76%
    14:00 +6°C° 1.4 mm 10 mps 736 mmHg 80%
    15:00 +6°C° 1.4 mm 9 mps 736 mmHg 84%
    16:00 +6°C° 0.9 mm 8 mps 736 mmHg 85%
    17:00 +6°C° 0.9 mm 7 mps 736 mmHg 86%
    18:00 +7°C° 0.9 mm 5 mps 736 mmHg 87%
    19:00 +5°C° 0 mm 6 mps 737 mmHg 86%
    20:00 +5°C° 0 mm 6 mps 738 mmHg 84%
    21:00 +5°C° 0 mm 6 mps 738 mmHg 83%
    22:00 +5°C° 0 mm 6 mps 739 mmHg 82%
    23:00 +4°C° 0 mm 6 mps 739 mmHg 81%
    Show more